Regional Weather Roundup
Issued by NWS Sioux Falls, SD

Home | Current Version | Previous Version | Graphics & Text | Print | Product List | Glossary On
Versions: 1 2 3 4 5 6 7 8 9 10 11 12 13 14 15 16 17 18 19 20 21 22 23 24 25 26 27 28 29 30 31 32 33 34 35 36 37 38 39 40 41 42 43 44 45 46 47 48 49 50
000
ASUS43 KFSD 261710
RWRFSD

WEATHER ROUNDUP FOR SE SOUTH DAKOTA/SW MINNESOTA/NW IOWA
NATIONAL WEATHER SERVICE SIOUX FALLS SD
1200 PM CDT THU APR 26 2018

NOTE: "FAIR" INDICATES FEW OR NO CLOUDS BELOW 12,000 FEET WITH NO
SIGNIFICANT WEATHER AND OR OBSTRUCTIONS TO VISIBILITY.


SDZ038>040-050-052>070-261800-
SOUTHEAST SOUTH DAKOTA

CITY           SKY/WX    TMP DP  RH WIND       PRES   REMARKS
BROOKINGS      FAIR      52  30  43 N29G38    30.02R
CHAMBERLAIN    SUNNY     60  28  30 N22G29    30.14R
HURON          SUNNY     57  29  34 N24G39    30.10R
MADISON        FAIR      54  32  43 N32       30.04R
MITCHELL       SUNNY     58  31  35 N30G43    30.09R
SIOUX FALLS    FAIR      57  31  37 N29G39    30.01R
WINNER         FAIR      60  27  28 N24G32    30.16R
YANKTON        FAIR      58  39  49 N18G32    30.03R
$$

MNZ071-072-080-081-089-090-097-098-261800-
SOUTHWEST MINNESOTA

CITY           SKY/WX    TMP DP  RH WIND       PRES   REMARKS
FAIRMONT       FAIR      54  40  59 NW18      29.92R
JACKSON        FAIR      52  41  66 NW22G32   29.93R
LUVERNE        FAIR      55  36  47 N21G30    29.98R
MARSHALL       FAIR      53  37  54 N25G36    29.98R
MONTEVIDEO     FAIR      57  30  35 NE28G39   29.98R
PIPESTONE      FAIR     N/A N/A N/A N22G32    29.99R
REDWOOD FALLS  FAIR      59  36  42 N14G31    29.94R
TRACY          FAIR      55  40  58 N26G32    29.97R
WINDOM         FAIR      55  34  44 NW28      29.92S
WORTHINGTON    FAIR      53  42  66 N28G33    29.94R
$$

IAZ001>003-012>014-020>022-031-032-NEZ013-014-SDZ071-261800-
NORTHWEST IOWA

CITY           SKY/WX    TMP DP  RH WIND       PRES   REMARKS
CHEROKEE       FAIR      59  37  44 NW12G21   29.95R
DENISON        FAIR      64  36  34 SW18      29.94F
ESTHERVILLE    FAIR      54  41  61 NW18      29.91R
LE MARS        FAIR      59  37  44 N15G25    29.96R
ORANGE CITY    FAIR      57  41  54 N15G21    29.96R
SHELDON        FAIR      57  39  51 N24G31    29.94R
SIOUX CITY     FAIR      60  39  45 N18G24    29.95R
SPENCER        FAIR      58  38  47 NW13G22   29.93R
STORM LAKE     FAIR      61  37  41 W20       29.93R
$$

ABBREVIATIONS USED IN REMARKS
   TC - TEMPERATURE IN CELSIUS
  WCI - WIND CHILL INDEX
   HX - HEAT INDEX
  VSB - VISIBILITY




USA.gov is the U.S. government's official web portal to all federal, state and local government web resources and services.